RH
46 46 46 46 48 50 53 56 56 54 52 53 54 55 55 53 51 52 54 54 53 53 50 47 46 45 45 47 49 50 51 52 52 53 53 52 52 52 52 51 51 53 56 56 56 56 57 58 59 60 62 63 64 65 66 65 63 61 58 55 53 53 56 56 51 44 38 34 33 31 30 30 30 29
45 45 47 48 48 49 52 57 59 58 55 54 55 55 55 54 52 51 52 53 52 52 53 50 48 46 46 46 48 49 50 51 51 52 53 54 54 54 53 54 55 56 58 58 58 58 59 60 61 62 63 64 65 67 69 70 70 69 67 64 59 54 54 57 59 57 50 44 40 37 34 33 31 30
45 47 47 47 48 48 49 53 57 59 58 57 56 56 55 54 53 50 50 52 50 49 51 51 49 48 47 47 48 48 48 49 49 51 52 53 54 55 56 56 57 57 58 58 59 59 60 62 63 64 66 66 66 67 68 71 72 72 71 70 66 60 56 57 59 60 58 54 48 45 43 41 38 36
46 48 48 48 49 48 48 50 54 57 58 58 57 57 57 55 54 52 50 51 50 47 47 48 48 48 48 47 46 47 48 48 49 50 51 53 54 55 57 58 58 59 59 58 58 59 60 61 61 63 65 66 67 67 67 69 71 71 71 69 67 64 61 61 60 60 60 58 54 51 49 48 46 44
46 48 49 50 51 51 51 51 54 58 59 59 59 58 58 56 55 53 51 51 51 48 45 45 48 48 47 47 46 46 48 49 49 50 52 52 54 56 57 58 59 59 58 58 59 59 60 60 60 60 62 64 65 65 66 68 70 70 70 70 69 67 65 65 64 63 61 59 58 55 53 51 50 49
46 47 49 52 54 56 56 54 56 58 60 60 59 59 59 58 56 55 53 52 52 50 46 43 46 49 47 47 48 47 48 49 49 50 51 52 52 54 56 57 58 57 56 56 57 59 60 59 59 60 62 63 64 63 64 67 69 71 73 73 71 69 66 65 66 66 63 61 60 59 58 56 54 52
46 47 48 51 55 58 58 59 60 60 60 60 60 61 62 61 59 57 55 53 52 51 48 44 46 50 50 49 49 48 48 49 49 51 51 51 51 52 53 55 55 53 52 53 55 57 58 58 58 60 63 64 64 63 62 62 63 64 66 68 69 68 66 64 63 64 63 63 62 61 61 59 57 55
46 47 47 49 52 56 59 63 64 62 60 60 60 62 63 63 63 60 57 54 51 51 50 47 47 49 50 50 50 50 50 50 50 51 51 51 51 51 52 52 52 51 51 51 53 55 56 55 56 57 60 62 61 60 58 56 55 53 53 55 56 58 58 58 57 58 59 59 60 61 62 62 61 59
46 46 46 47 50 55 59 61 64 64 61 59 60 63 63 63 64 64 61 57 53 50 50 50 50 50 50 51 52 52 52 52 52 52 52 52 51 51 51 51 51 51 51 51 51 52 53 52 52 53 53 53 53 52 51 50 49 48 47 47 47 47 47 48 48 49 50 51 53 54 56 58 59 60
46 45 44 45 49 55 58 59 61 64 63 62 62 63 63 63 64 64 64 62 57 52 50 50 51 51 52 53 53 53 53 54 54 54 53 52 51 51 52 52 52 51 51 51 50 50 52 51 51 50 49 47 46 45 46 46 46 45 44 44 43 42 42 41 41 41 41 41 43 43 44 45 48 52
46 45 44 46 50 55 57 56 57 60 62 63 64 63 64 65 65 64 64 65 61 55 52 51 51 52 54 55 55 54 54 54 54 53 52 52 52 52 51 51 52 51 50 49 48 48 50 49 47 46 46 47 46 46 46 47 46 44 43 41 40 40 39 39 38 37 36 36 36 36 36 37 39 42
44 45 46 48 50 54 57 57 56 56 55 56 58 60 62 65 65 63 62 63 60 55 53 52 53 54 55 56 56 55 54 54 53 52 52 52 52 52 50 50 50 49 47 47 47 47 47 46 45 44 45 44 44 44 43 43 42 41 41 40 39 38 39 39 39 38 37 37 36 36 36 36 36 39
43 44 47 48 49 53 56 56 55 53 50 49 51 54 57 61 62 61 59 59 58 55 53 53 55 55 56 56 56 55 55 55 53 52 51 50 50 50 49 48 46 44 43 44 45 46 45 43 41 40 39 38 37 36 36 37 38 40 40 41 41 40 41 41 41 40 39 39 39 39 39 38 38 39
43 44 47 48 48 53 54 53 54 55 52 50 50 50 53 57 56 56 56 57 56 54 53 53 55 56 56 55 55 55 55 54 53 52 50 49 49 48 47 45 44 42 42 41 41 41 40 38 36 36 35 34 33 33 35 36 38 39 40 41 41 41 41 42 41 41 41 41 40 40 40 40 40 39
43 44 46 47 49 52 52 51 55 57 54 51 52 51 53 55 55 54 55 55 54 53 52 54 55 56 56 55 54 55 55 53 52 50 49 49 50 48 45 44 43 42 40 38 35 35 35 35 35 35 35 33 33 35 37 37 37 38 38 39 40 41 42 43 43 43 44 43 43 42 41 40 39 39
44 44 45 47 48 51 52 52 57 58 54 53 54 53 53 54 54 54 55 54 53 52 52 54 55 56 56 55 54 54 53 51 50 48 48 49 49 47 43 42 42 40 36 33 32 32 32 31 29 28 28 28 29 31 33 34 35 35 36 36 37 39 40 43 44 45 45 44 43 43 42 41 41 40
44 44 45 46 47 50 53 57 60 59 55 54 55 54 53 54 54 53 54 54 53 52 53 54 55 55 55 54 53 52 51 49 48 47 48 47 46 43 41 39 38 35 31 30 30 27 26 25 23 22 24 26 25 25 26 28 28 28 28 29 31 32 33 35 39 42 43 42 41 40 40 40 40 40
44 45 45 46 47 51 56 61 64 61 57 55 55 54 54 56 55 54 55 55 54 54 54 55 55 54 52 52 53 51 48 46 46 46 46 44 41 37 35 33 31 29 27 27 25 22 20 21 21 21 25 28 27 25 24 24 24 24 24 25 27 29 30 32 35 39 42 44 44 43 43 44 44 43
45 45 45 46 48 52 57 61 64 63 60 58 57 57 57 56 55 56 57 56 56 56 56 57 55 53 51 51 51 48 46 44 45 44 42 40 36 32 30 29 28 28 26 23 21 18 17 18 20 21 25 29 28 25 24 25 26 28 29 29 30 31 34 36 37 39 40 42 44 44 44 43 43 43
47 45 45 47 49 51 54 59 62 63 63 61 58 59 59 55 54 56 59 58 56 55 55 57 55 51 49 49 48 46 45 44 43 41 39 35 31 29 28 28 28 28 26 21 18 17 17 19 21 22 25 28 27 25 26 29 30 30 31 31 31 31 33 35 36 37 37 37 38 38 38 38 37 36
46 45 46 48 49 51 55 58 61 64 65 62 58 59 59 57 56 57 58 57 55 53 54 55 53 50 48 47 48 47 45 43 41 39 35 32 30 29 29 29 28 26 24 20 18 17 18 21 23 24 25 26 26 25 27 29 29 28 29 30 30 30 29 30 32 33 34 34 35 35 35 34 33 32
47 46 48 49 50 54 59 61 64 67 67 62 58 58 59 58 59 58 56 54 53 52 53 53 50 48 48 48 49 47 44 41 39 35 31 29 29 30 30 29 26 22 21 20 18 17 19 22 24 25 26 28 28 28 26 24 24 26 27 28 30 31 31 31 32 35 37 36 36 36 36 35 34 33
47 47 49 50 51 57 62 64 66 68 68 64 58 56 58 59 59 57 53 51 51 52 51 49 46 47 48 49 47 44 40 38 36 32 28 26 26 28 28 26 23 21 23 22 18 17 19 23 24 25 26 28 28 27 26 24 23 24 26 27 29 31 34 35 37 39 40 40 40 40 39 38 37 36
47 47 48 50 53 59 64 66 68 69 68 65 60 56 57 60 61 58 51 48 50 51 47 44 44 45 46 45 43 39 37 36 32 28 26 24 24 25 25 23 22 23 24 23 19 17 19 22 24 25 26 28 27 26 27 25 22 21 23 27 30 32 35 38 39 39 39 39 38 38 38 37 37 36
46 46 47 51 57 62 65 67 70 69 66 64 61 58 58 62 64 58 50 48 49 48 43 41 42 43 43 42 38 36 35 33 29 26 24 23 23 23 22 22 23 23 23 22 19 18 19 21 23 24 26 27 26 25 26 25 23 23 24 26 29 32 35 37 39 40 39 38 36 36 36 35 34 34
45 44 47 53 59 64 66 68 70 68 64 63 61 57 58 64 64 57 52 50 48 44 41 40 40 41 41 38 34 34 34 31 27 25 23 22 22 21 21 22 22 22 22 21 19 18 19 19 21 22 24 24 24 23 23 23 24 25 25 24 27 29 31 34 38 39 40 39 38 36 36 35 34 33
44 45 49 55 61 65 68 70 70 69 67 64 60 57 59 64 64 59 56 53 46 41 39 38 39 40 38 34 33 34 33 30 26 23 22 21 21 21 21 22 23 23 22 20 18 18 19 19 19 20 20 20 20 21 22 22 22 23 24 24 24 25 27 30 34 36 36 36 36 36 36 36 35 34
45 49 54 59 64 67 69 71 72 73 70 65 60 57 58 64 66 64 59 52 43 40 39 38 38 38 34 32 33 34 32 28 24 22 20 20 21 21 22 23 24 24 22 19 18 18 18 18 17 16 16 17 19 21 22 21 21 22 21 20 21 22 23 25 28 30 31 31 33 34 34 34 34 33
50 55 60 65 68 69 70 71 73 75 71 65 60 58 59 64 68 65 58 50 43 39 38 37 36 34 31 32 34 33 30 26 22 20 20 20 20 21 23 24 25 24 21 19 18 17 17 16 15 14 15 16 19 20 21 20 20 19 18 18 19 21 21 22 23 24 25 27 29 31 30 29 28 27
58 62 66 70 71 73 74 73 73 75 72 66 62 61 62 68 70 62 54 48 43 38 36 36 34 31 31 33 33 31 28 24 21 20 20 20 21 22 23 25 25 24 21 18 17 16 16 15 13 13 15 16 17 19 20 20 19 18 17 19 21 22 23 23 23 21 21 22 22 23 24 23 22 21
68 71 74 76 75 75 77 76 76 77 75 69 66 65 69 73 70 59 51 47 42 36 35 34 32 31 32 33 32 29 25 22 20 20 21 21 22 23 24 25 26 23 20 19 18 16 15 13 12 13 15 16 16 16 17 18 18 18 18 20 23 24 25 24 24 25 24 21 20 20 21 21 20 21
77 80 80 79 76 76 77 78 80 80 78 74 72 72 74 75 67 57 52 49 43 37 36 34 32 32 33 33 30 27 23 20 19 20 22 23 23 23 25 26 25 23 20 19 18 16 13 12 12 12 14 15 15 14 13 14 16 18 19 22 24 25 26 26 26 27 26 23 22 24 25 23 21 19
81 84 84 81 78 76 76 79 83 85 83 81 79 77 77 74 65 57 53 49 42 38 36 34 33 34 34 32 29 25 21 20 20 21 23 24 23 24 25 26 24 22 20 19 18 16 13 12 11 12 12 12 13 12 12 13 15 18 20 22 23 25 26 27 27 28 26 25 26 28 28 25 22 19
84 85 85 82 79 77 77 81 86 89 88 86 81 78 75 70 63 58 53 47 41 38 36 35 35 35 34 31 27 23 21 20 21 23 25 24 23 24 25 25 23 21 20 20 20 18 14 11 10 10 10 10 11 12 13 14 16 17 19 21 24 26 27 27 28 28 27 27 29 29 28 25 22 19
81 80 78 78 77 76 76 80 84 88 90 88 82 79 75 68 62 57 51 45 41 38 36 36 36 36 33 29 25 22 21 21 23 25 26 24 23 24 25 24 22 21 21 20 21 20 16 12 11 11 11 12 15 16 16 16 17 17 19 22 24 26 26 26 26 27 27 29 30 29 28 25 20 16
81 80 77 76 76 75 75 80 84 86 89 88 83 78 72 65 60 55 49 43 40 37 37 37 38 37 34 29 24 22 22 23 25 26 25 23 23 25 25 22 21 20 21 20 20 19 16 14 14 14 14 16 18 19 19 19 18 18 19 20 21 23 25 25 25 26 28 30 30 30 30 27 19 15
84 85 83 81 79 75 76 81 87 89 88 87 83 76 69 63 59 53 47 42 39 37 38 39 39 38 35 29 24 22 22 24 26 25 23 23 24 24 24 22 21 21 21 21 20 18 15 13 15 16 17 18 18 18 19 20 20 20 20 19 19 21 24 24 25 27 28 28 28 28 27 23 18 16
84 85 85 85 82 79 78 82 88 90 89 86 81 74 68 63 57 50 45 41 39 39 41 41 41 39 35 29 24 22 22 24 24 23 22 23 24 23 22 22 22 22 21 20 19 17 15 14 16 19 20 20 19 19 19 20 21 21 21 19 19 21 22 24 27 28 26 24 23 22 19 18 18 20
83 84 84 84 82 81 81 84 88 88 86 83 78 72 67 62 55 49 44 41 40 41 43 43 41 38 34 28 24 22 22 22 22 22 22 22 22 21 21 21 21 21 21 20 19 18 17 17 19 21 21 21 20 19 18 18 19 20 21 22 23 23 22 24 26 26 22 20 17 15 15 18 22 25
88 87 84 81 81 82 84 86 86 85 83 80 75 71 66 59 52 48 44 41 42 43 44 43 41 37 33 29 25 22 21 21 22 21 21 21 20 20 21 21 21 20 20 18 17 17 18 19 18 18 17 18 18 16 16 17 19 21 24 25 26 25 24 23 23 22 19 16 14 16 20 24 27 30
91 87 83 82 83 85 87 89 87 85 83 78 73 68 64 57 50 47 44 42 44 45 44 42 40 37 32 29 25 23 22 22 21 20 19 19 20 19 19 19 19 20 19 18 17 17 17 15 12 12 14 15 16 16 18 20 21 23 24 25 26 28 25 22 21 20 17 14 14 18 24 28 29 31
87 84 84 85 87 88 90 90 88 84 81 76 70 65 61 55 50 47 44 45 46 46 44 42 40 36 33 29 26 24 22 21 20 20 20 20 20 20 19 18 19 20 20 19 17 15 12 9 9 11 14 16 17 18 20 21 21 22 25 26 28 28 26 22 19 17 14 13 15 19 24 28 31 34
85 86 88 89 89 89 89 88 84 80 76 72 67 62 58 54 50 47 46 47 48 46 43 41 39 36 32 29 26 24 21 20 20 20 20 20 21 21 21 20 20 20 20 19 16 13 9 9 11 13 15 18 20 21 22 22 22 23 25 26 27 28 28 26 21 16 12 12 14 17 22 29 35 40
87 89 90 90 89 87 84 81 77 74 70 66 63 60 56 52 49 48 48 49 48 45 43 40 37 34 31 28 25 22 20 20 20 21 21 21 21 20 20 20 20 20 19 19 17 14 12 11 13 16 18 20 22 22 21 21 22 23 24 26 28 29 29 26 21 15 12 12 14 16 20 28 35 41
87 89 90 89 86 81 76 74 71 68 66 63 61 58 54 51 50 49 50 50 47 43 40 37 33 30 27 24 23 21 21 21 21 21 22 22 21 20 20 20 21 20 20 19 17 14 13 13 15 18 21 21 21 22 21 20 22 24 25 26 28 29 27 25 22 18 13 11 14 17 21 28 35 40